Probability
0 1 4 5 3 1 0 0 0 0 0 0 0 0 0 0 0 0 0 0 0 0 0 0 0 0 0 0 0 0 0 0 0 0 0 0 0 0 0 0 0 0 0
0 1 3 4 3 1 0 0 0 0 0 0 0 0 0 0 0 0 0 0 0 0 0 0 0 0 0 0 0 0 0 0 0 0 0 0 0 0 0 0 0 0 0
1 2 2 3 3 2 1 0 0 0 0 0 0 0 0 0 0 0 0 0 0 0 0 0 0 0 0 0 0 0 0 0 0 0 0 0 0 0 0 0 0 0 0
2 2 2 2 3 3 2 1 0 0 0 0 0 0 0 0 0 0 0 0 0 0 0 0 0 0 0 0 0 0 0 0 0 0 0 0 0 0 0 0 0 0 0
2 2 2 3 3 3 3 2 1 0 0 0 0 0 0 0 0 0 0 0 0 0 0 0 0 0 0 0 0 0 0 0 0 0 0 0 0 0 0 0 0 0 0
1 3 3 3 3 3 3 2 1 0 0 0 0 0 0 0 0 0 0 0 0 0 0 0 0 0 0 0 0 0 0 0 0 0 0 0 0 0 0 0 0 0 0
2 4 4 3 3 3 3 2 1 0 0 0 0 0 0 0 0 0 0 0 0 0 0 0 0 0 0 0 0 0 0 0 0 0 0 0 0 0 0 0 0 0 0
4 6 5 3 3 2 2 2 1 0 0 0 0 0 0 0 0 0 0 0 0 0 0 0 0 0 0 0 0 0 0 0 0 0 0 0 0 0 0 0 0 0 0
5 6 6 3 2 1 1 1 0 0 0 0 0 0 0 0 0 0 0 0 0 0 0 0 0 0 0 0 0 0 0 0 0 0 0 0 0 0 0 0 0 0 0
4 6 6 4 2 1 0 0 0 0 0 0 0 0 0 0 0 0 0 0 0 0 0 0 0 0 0 0 0 0 0 0 0 0 0 0 0 0 0 0 0 0 0
4 4 5 4 2 1 0 0 0 0 0 0 0 0 0 0 0 0 0 0 0 0 0 0 0 0 0 0 0 0 0 0 0 0 0 0 0 0 0 0 0 0 0
2 3 3 3 2 1 0 0 0 0 0 0 0 0 0 0 0 0 0 0 0 0 0 0 0 0 0 0 0 0 0 0 0 0 0 0 0 0 0 0 0 0 0
1 1 2 2 2 2 1 0 0 0 0 0 0 0 0 0 0 0 0 0 0 0 0 0 0 0 0 0 0 0 0 0 0 0 0 0 0 0 0 0 0 0 0
0 0 1 1 3 3 2 0 0 0 0 0 0 0 0 0 0 0 0 0 0 0 0 0 0 0 0 0 0 0 0 0 0 0 0 0 0 0 0 0 0 0 0
1 0 0 1 2 4 3 1 0 0 0 0 0 0 0 0 0 0 0 0 0 0 0 0 0 0 0 0 0 0 0 0 0 0 0 0 0 0 0 0 0 0 0
2 1 1 0 1 2 3 2 1 0 0 0 0 0 0 0 0 0 0 0 0 0 0 0 0 0 0 0 0 0 0 0 0 0 0 0 0 0 0 0 0 0 0
3 3 2 1 0 0 1 1 1 0 0 0 0 0 0 0 0 0 0 0 0 0 0 0 0 0 0 0 0 0 0 0 0 0 0 0 0 0 0 0 0 0 0
4 4 3 2 1 0 0 0 0 0 0 0 0 0 0 0 0 0 0 0 0 0 0 0 0 0 0 0 0 0 0 0 0 0 0 0 0 0 0 0 0 0 0
4 4 5 5 3 1 1 0 0 0 0 0 0 0 0 0 0 0 0 0 0 0 0 0 0 0 0 0 0 0 0 0 0 0 0 0 0 0 0 0 0 0 0
5 5 6 7 6 4 3 2 1 1 0 0 0 0 0 0 0 0 0 0 0 0 0 0 0 0 0 0 0 0 0 0 0 0 0 0 0 0 0 0 0 0 0
6 6 7 8 7 7 5 4 4 3 1 0 0 0 0 0 0 0 0 0 0 0 0 0 0 0 0 0 0 0 0 0 0 0 0 0 0 0 0 0 0 0 0
6 6 7 7 8 7 7 6 6 5 3 1 1 1 1 0 0 1 1 1 0 0 0 1 0 0 0 0 0 0 0 0 0 0 0 0 0 0 0 0 0 0 0
6 6 6 7 8 9 8 8 7 5 4 3 2 2 2 1 1 2 2 1 0 0 0 0 0 0 0 0 0 0 0 0 0 0 0 0 0 0 0 0 0 0 0
6 5 5 6 7 9 10 9 8 6 4 3 3 3 2 2 2 3 2 1 0 0 0 0 0 0 0 0 0 0 0 0 0 0 0 0 0 0 0 0 0 0 0
4 3 2 2 4 7 9 9 8 6 4 3 3 2 1 1 1 1 1 0 0 0 0 0 0 0 0 0 0 0 0 0 0 0 0 0 0 0 0 0 0 0 0
3 2 1 0 2 4 6 7 7 6 5 4 3 1 0 0 0 0 0 0 0 0 0 0 0 0 0 0 0 0 0 0 0 0 0 0 0 0 0 0 0 0 0
Wind_Speed
10 14 15 15 15 14 13 12 12 12 11 11 11 11 11 11 10 11 11 12 12 12 13 13 13 13 13 13 13 13 13 12 12 13 13 13 13 13 13 12 11 8 12
14 15 15 15 15 14 13 12 12 12 11 11 11 11 11 10 11 11 11 11 12 12 13 12 12 13 12 12 12 11 11 10 9 9 10 10 12 12 12 12 11 7 11
15 15 13 14 14 14 13 12 11 11 11 11 11 10 10 10 11 11 11 11 11 12 12 12 12 12 11 11 10 10 9 7 5 4 4 4 7 11 10 10 10 10 9
15 14 13 13 14 14 13 12 11 11 11 11 11 10 10 10 10 10 10 10 11 11 11 11 11 11 10 10 9 8 6 4 3 4 2 4 5 9 9 8 8 8 8
13 12 13 13 13 14 13 12 11 10 10 10 10 10 10 9 9 10 9 9 9 9 9 9 9 9 9 8 8 6 4 3 5 3 2 5 5 7 7 7 6 6 6
11 12 13 13 13 13 13 12 11 10 10 10 10 10 9 9 9 9 9 8 8 8 8 8 8 8 7 7 6 4 2 4 5 2 3 4 4 6 6 5 4 4 4
11 12 12 11 11 11 11 11 11 10 10 9 9 9 9 9 8 8 8 7 7 7 7 8 7 7 6 5 4 2 2 5 3 2 2 4 4 5 4 3 2 2 3
10 11 11 10 10 10 9 9 10 10 9 9 9 9 9 9 8 8 8 7 6 7 7 7 6 6 5 4 3 1 2 5 3 2 2 3 3 3 2 1 1 1 1
10 11 9 8 8 8 8 8 8 8 9 8 9 8 7 8 7 7 7 6 6 6 6 6 5 5 4 3 3 1 3 5 4 2 0 2 3 2 1 1 1 2 2
8 9 9 8 8 7 6 7 7 7 8 8 8 8 7 7 7 7 6 6 6 6 6 6 5 5 4 4 3 3 4 5 4 3 1 2 4 2 2 3 3 3 4
6 7 8 8 7 7 7 8 7 6 6 7 7 8 8 5 5 5 7 7 6 6 5 5 5 5 4 4 5 5 5 3 3 2 0 3 4 3 4 4 5 5 5
6 6 6 7 7 7 6 6 5 5 5 4 4 6 5 4 4 5 7 8 7 6 6 6 6 5 5 3 5 6 3 4 3 2 2 5 5 5 6 6 7 7 7
6 5 5 6 6 6 4 5 3 3 4 4 5 6 4 3 3 3 3 4 5 6 4 5 5 4 4 3 3 3 4 3 2 2 2 6 6 6 8 8 8 8 9
7 6 4 5 5 5 4 4 4 3 3 3 4 5 4 2 2 2 2 4 4 3 4 4 3 4 4 4 4 4 3 3 2 2 2 6 7 8 9 10 10 10 10
7 7 5 4 5 5 4 3 4 4 4 4 4 4 4 3 3 3 2 3 3 3 4 4 4 4 4 4 4 4 4 4 4 3 2 6 8 10 11 11 11 12 12
7 7 7 5 4 4 4 3 3 3 3 4 4 5 5 3 3 3 3 3 3 3 3 4 5 4 4 3 4 4 5 5 4 4 4 5 9 10 12 12 12 13 13
6 6 7 7 6 5 4 4 3 3 3 3 3 5 5 4 3 3 3 3 3 4 4 3 4 3 3 3 4 5 5 5 5 5 5 4 5 8 11 12 13 13 13
5 6 7 6 6 6 5 4 3 3 3 3 3 3 5 5 4 3 3 3 3 3 3 3 3 3 4 4 4 4 4 4 5 6 5 5 4 4 7 11 12 12 12
3 4 5 6 6 6 5 4 4 3 3 3 2 3 4 4 4 3 3 3 3 3 3 3 3 3 3 4 4 3 4 4 5 5 6 6 5 5 4 6 9 10 10
2 2 2 3 4 5 4 4 3 3 3 3 3 3 4 3 4 4 3 3 3 3 3 3 3 3 3 3 3 4 4 5 5 5 6 6 5 5 5 4 4 5 8
3 2 1 2 2 2 3 3 4 4 3 3 4 4 5 5 5 5 3 4 3 4 4 4 4 4 3 2 2 4 5 7 7 6 5 5 5 4 4 4 3 2 3
3 2 1 1 1 1 2 2 2 2 3 3 3 4 5 6 6 5 5 4 4 4 5 5 4 3 3 3 3 2 3 3 4 5 4 4 4 3 3 4 3 3 3
4 3 2 1 0 0 1 1 1 1 1 2 2 2 3 5 5 5 6 5 5 5 5 5 5 6 4 4 4 3 3 3 2 3 4 4 3 3 3 3 4 4 4
3 3 3 3 3 2 1 0 1 1 2 3 2 2 2 3 4 5 5 6 6 5 5 5 5 5 5 5 4 4 4 2 2 3 2 3 4 4 4 3 3 3 3
4 3 3 3 4 4 3 1 0 1 2 1 1 2 2 2 1 2 3 3 4 4 5 5 5 5 5 6 4 3 4 4 5 4 5 3 2 3 3 3 3 2 2
4 4 3 2 3 4 4 3 2 1 1 1 2 2 2 2 1 2 2 3 4 4 4 5 5 6 6 6 5 4 3 3 4 5 6 5 4 3 3 3 3 2 2
Wind_Direction
130 139 149 148 146 143 141 139 137 135 133 129 125 121 118 114 107 105 106 105 103 101 97 93 91 88 86 84 82 81 79 77 78 81 81 80 77 72 66 62 66 65 67
130 139 148 147 146 144 144 142 141 138 135 132 130 125 124 120 113 108 107 105 104 101 99 95 93 90 88 86 86 83 82 79 80 83 84 81 80 74 68 64 67 68 68
128 138 146 146 146 145 144 143 141 141 140 136 133 130 127 122 118 114 110 106 105 103 101 98 95 94 92 90 89 86 83 76 62 58 82 95 83 76 72 68 67 68 69
130 140 147 144 147 147 146 145 144 144 141 139 137 135 130 126 121 118 115 111 108 107 106 103 100 98 96 93 91 88 80 59 14 351 59 91 86 80 75 71 68 66 67
131 140 140 144 146 148 148 148 147 147 145 144 142 141 137 132 128 124 119 117 115 114 113 109 106 103 100 97 93 90 74 10 337 335 65 84 83 85 79 73 68 64 62
132 132 139 146 147 149 151 152 152 151 150 148 147 146 143 138 131 130 126 123 120 120 120 117 114 111 107 104 102 94 51 341 329 353 62 84 87 87 82 77 74 63 58
131 131 143 143 145 149 153 157 158 155 154 152 152 150 147 143 138 136 134 131 128 127 127 126 123 120 119 116 112 104 1 329 323 10 57 80 91 93 84 71 67 66 57
130 132 143 142 145 148 152 155 159 159 156 154 152 150 150 149 146 145 145 141 140 140 138 137 135 133 133 133 133 128 316 315 326 346 70 95 109 107 86 56 16 9 9
129 133 144 151 151 151 154 153 156 159 157 157 156 152 152 153 152 151 154 154 156 155 153 147 147 149 149 154 163 205 274 294 297 288 231 115 133 133 137 266 280 282 291
132 140 151 158 160 161 160 160 156 158 160 161 159 156 156 159 158 161 164 169 169 169 166 161 159 165 172 182 196 222 256 283 267 259 227 145 157 180 244 262 266 269 269
139 147 155 161 164 165 168 165 159 157 163 163 162 162 164 176 175 175 183 177 178 176 177 178 180 185 192 206 215 228 249 254 260 261 220 158 182 220 253 261 264 266 266
160 161 158 165 167 166 171 159 169 171 169 180 174 173 190 195 183 176 169 175 180 182 187 197 202 203 208 214 219 224 237 245 254 249 202 180 205 238 252 257 261 262 264
173 173 167 169 167 166 161 160 174 175 174 191 188 181 192 192 171 166 159 170 185 195 202 205 207 216 219 219 209 210 223 238 242 244 208 197 214 242 252 256 259 262 264
176 180 185 177 170 172 167 173 175 174 176 185 187 188 186 178 179 180 179 181 187 193 201 202 204 216 221 227 230 230 233 239 239 238 221 212 218 238 253 258 258 260 263
181 179 185 189 183 179 179 186 184 184 179 184 183 185 188 184 187 188 190 193 196 196 198 202 212 218 220 227 231 231 238 245 248 246 232 223 223 234 250 258 260 261 261
184 180 179 188 194 192 192 195 192 188 185 186 179 183 191 197 193 189 197 198 206 206 206 205 211 218 220 220 231 236 239 242 242 244 237 232 230 232 243 252 257 261 264
180 184 180 185 194 197 202 206 204 198 190 192 187 186 191 199 205 197 195 199 209 210 208 213 223 220 218 221 230 236 238 240 242 246 245 238 232 229 233 244 252 258 262
168 181 185 182 190 198 200 205 211 210 204 199 194 190 195 203 208 212 208 208 207 205 204 210 221 226 225 225 233 239 238 236 239 244 247 245 238 229 227 234 243 249 256
166 173 175 176 188 200 201 197 210 211 210 205 200 201 204 205 206 210 216 223 211 208 211 216 219 219 231 235 237 246 249 249 247 245 244 243 239 231 223 225 230 238 247
94 121 144 167 187 197 201 199 203 209 209 209 210 212 210 213 212 210 219 230 223 214 214 217 227 226 229 238 257 259 253 248 245 241 242 241 236 230 226 223 222 229 238
57 62 98 147 178 191 202 204 204 209 209 215 215 211 211 212 213 209 218 224 224 223 222 216 219 228 231 221 261 275 261 245 238 237 233 232 229 225 221 219 214 215 224
53 47 45 78 159 199 227 222 218 210 210 216 227 219 214 213 214 212 213 218 220 227 234 228 219 222 226 204 209 258 284 280 250 234 227 226 226 219 221 219 214 215 217
40 31 23 12 55 166 266 228 243 213 223 229 243 242 233 222 217 215 216 217 220 224 230 230 227 221 226 220 207 208 232 254 297 262 229 221 218 221 229 224 219 221 222
32 30 28 18 16 22 76 118 201 230 241 247 257 255 256 236 231 226 226 223 221 222 229 230 226 231 224 227 226 224 229 228 252 289 278 234 224 227 231 230 225 225 222
34 26 23 23 20 20 28 37 189 255 272 312 332 309 284 272 260 252 246 242 240 234 234 233 228 228 229 230 223 223 237 242 234 241 266 262 250 234 230 227 223 222 217
35 24 18 29 27 20 23 22 19 344 338 0 341 327 311 299 303 316 292 261 253 246 243 243 239 234 232 236 233 221 216 224 226 231 247 255 255 243 235 226 215 206 202